Temperature
27 28 29 30 30 29 29 29 29 29 28 27 27 26 25 24 23 22 21 20 19 18 18 18 17 17 18 18 18 18 18 18 18 18 17 17 17 17 17 17 17 16 16 16
28 29 30 30 29 29 29 29 29 28 27 27 26 26 26 24 23 22 21 20 19 19 18 18 17 17 17 18 18 18 18 18 17 17 17 17 17 17 16 16 16 16 16 16
29 30 30 29 29 29 29 29 29 28 27 26 26 26 25 25 23 22 22 21 20 19 19 18 18 17 17 17 18 18 18 18 17 17 17 17 17 16 16 16 16 16 16 15
29 30 29 29 29 29 29 29 28 27 27 28 26 27 26 25 24 24 22 21 21 20 19 19 18 18 18 17 17 17 18 18 17 17 17 17 17 17 16 16 16 16 15 15
29 29 29 29 29 29 28 28 28 27 27 27 27 27 28 26 25 25 24 22 21 20 20 19 19 18 18 17 17 17 17 17 17 17 17 17 17 16 16 16 16 15 15 15
30 30 30 30 29 28 27 27 27 27 28 27 27 27 27 27 26 26 25 23 22 21 20 19 19 18 18 17 17 17 17 17 17 17 17 16 16 16 16 16 15 15 15 15
29 29 30 29 28 28 28 28 27 27 27 27 27 27 27 27 27 26 25 23 22 21 20 19 19 18 18 18 17 17 17 17 17 17 17 16 16 16 16 15 15 15 15 15
28 28 29 29 29 29 28 28 27 26 27 28 27 27 28 27 26 25 25 24 22 22 21 20 19 19 18 18 18 17 17 17 17 17 17 16 16 16 16 15 15 15 15 15
29 29 29 29 29 29 28 28 29 28 27 27 28 28 28 26 26 25 25 24 23 22 21 21 20 19 19 18 18 18 17 17 17 17 17 16 16 16 15 15 15 15 14 14
29 28 29 28 28 27 28 29 28 28 26 26 27 28 28 27 26 26 25 24 24 23 22 21 21 20 20 19 18 18 18 18 18 17 17 16 16 16 16 15 15 14 14 14
29 28 28 28 27 28 27 27 27 28 27 26 26 27 29 28 27 27 26 25 24 24 23 22 21 21 20 19 19 18 18 18 18 17 17 17 16 16 16 15 15 15 15 14
28 28 28 28 28 28 28 28 28 27 26 27 27 28 28 28 28 27 26 25 25 24 23 23 22 21 20 20 19 19 18 18 18 18 17 17 17 16 16 15 15 15 15 15
27 27 26 26 26 26 27 28 28 28 27 27 27 28 28 28 28 27 26 25 25 24 24 23 22 21 21 20 20 19 19 18 18 18 17 17 17 17 16 16 16 15 15 15
26 26 27 27 27 28 27 27 27 27 27 27 27 28 28 28 27 27 26 25 25 24 23 23 22 22 21 21 20 19 19 19 18 18 18 17 17 17 17 16 16 16 15 15
26 26 27 27 28 28 28 28 27 27 27 27 28 28 28 28 27 26 25 25 24 24 23 23 22 22 21 21 20 20 19 19 19 18 18 18 17 17 17 16 16 16 16 15
24 25 26 26 27 27 27 27 27 27 27 27 27 28 28 27 26 25 24 24 24 24 23 23 22 22 21 20 20 20 19 19 19 18 18 18 17 17 17 17 16 16 16 15
25 24 25 26 27 26 26 27 27 27 27 27 27 27 27 26 25 24 23 23 23 23 23 22 22 21 21 20 20 20 19 19 19 18 18 18 18 17 17 17 16 16 16 16
24 24 25 26 25 24 27 27 27 27 27 27 27 26 26 25 23 22 22 22 22 22 22 22 21 21 21 20 20 19 19 19 19 19 18 18 17 17 17 16 16 16 16 16
23 23 24 25 25 25 26 26 26 26 26 26 26 25 25 24 23 22 21 20 20 20 20 20 20 21 20 20 19 19 19 19 19 18 18 18 17 17 17 17 16 16 16 16
22 23 24 24 24 24 25 25 24 25 25 25 24 24 24 24 25 23 20 19 19 19 19 19 19 20 19 19 19 19 18 18 18 18 18 17 17 17 17 16 16 16 16 16
22 22 23 24 24 25 25 24 24 24 23 22 23 22 22 23 22 20 19 18 18 18 18 18 18 18 18 18 18 18 18 18 18 17 17 17 17 17 16 16 16 15 15 15
23 23 23 23 23 23 23 24 24 22 21 21 21 21 20 20 19 18 18 17 17 17 17 17 17 17 17 17 17 17 17 17 17 17 17 16 16 16 15 15 15 15 15 14
23 23 23 23 23 21 21 21 20 20 20 20 20 20 19 19 18 18 17 16 16 16 16 16 16 16 16 17 17 17 16 16 16 16 16 16 16 15 15 15 14 14 14 14
22 21 22 22 22 21 20 20 19 19 19 19 19 19 18 18 17 17 16 16 16 15 16 16 15 15 16 16 16 16 16 15 15 15 15 14 14 14 14 14 13 13 13 13
21 22 22 22 21 20 19 19 18 18 18 18 18 17 17 17 16 16 15 15 15 14 15 15 15 15 14 14 14 14 14 14 14 14 14 13 13 13 13 13 13 13 12 12
20 20 21 21 19 20 19 18 17 17 17 17 16 16 16 16 15 15 14 14 14 14 14 14 14 14 13 13 13 13 13 13 13 13 13 13 13 12 12 12 12 12 12 11
Wind_Speed
8 9 9 5 6 9 9 10 10 6 1 5 7 6 5 7 8 7 7 7 6 6 8 9 10 10 10 10 10 10 10 9 8 6 6 6 5 5 5 5 6 6 5 5
9 11 8 5 6 8 10 10 8 3 1 5 6 7 5 7 8 8 8 8 8 9 9 10 11 11 10 10 10 10 10 10 8 6 4 4 5 4 5 5 6 6 5 5
14 6 2 6 8 8 9 9 8 6 3 5 6 6 7 7 8 8 8 8 9 11 11 11 12 12 12 11 11 10 9 9 7 7 6 5 5 5 6 6 5 5 5 4
12 9 7 9 8 7 8 4 6 5 7 4 4 6 5 8 9 10 10 10 10 11 11 12 12 13 12 11 10 10 9 9 8 8 7 7 6 6 5 5 5 5 5 4
10 8 8 9 6 6 4 1 4 6 8 8 5 7 1 7 9 10 11 12 12 12 13 13 13 13 12 12 11 10 10 9 8 7 8 7 6 6 6 5 6 5 5 4
14 8 7 7 2 3 3 4 5 7 7 6 3 6 2 3 6 9 11 12 13 14 13 14 13 13 13 12 11 11 10 9 8 8 7 7 6 6 6 6 6 6 5 4
16 14 9 7 6 6 7 7 6 5 4 3 1 5 3 1 3 7 11 13 14 14 14 14 15 15 14 14 13 12 11 10 10 9 8 8 7 7 7 6 6 5 5 5
15 13 12 9 10 7 8 9 8 8 7 5 1 4 2 3 4 6 10 13 14 15 15 15 15 15 15 15 14 13 13 12 11 10 9 7 8 7 6 6 4 5 4 4
12 11 6 7 6 6 6 8 7 9 9 8 4 2 2 5 7 9 11 13 15 15 16 16 16 16 16 15 15 14 14 12 12 11 10 9 8 7 5 6 6 5 4 4
13 11 9 7 6 5 7 6 5 7 6 7 4 3 1 5 8 11 13 14 15 16 16 17 16 17 16 15 15 14 14 13 12 12 11 10 9 8 7 7 6 5 5 5
15 13 10 9 10 11 8 7 8 7 7 8 7 3 3 2 7 11 13 14 16 17 16 16 16 16 16 16 16 15 15 14 13 13 12 10 10 9 9 8 8 7 7 6
12 10 11 11 5 5 11 11 10 9 8 7 9 4 5 2 6 9 11 13 15 16 16 16 16 16 16 16 16 16 15 15 15 14 13 12 11 10 10 9 8 8 7 7
9 8 10 9 7 8 9 11 11 10 9 9 10 3 7 4 5 7 10 12 14 15 16 16 16 16 17 17 16 16 16 16 15 15 14 13 12 12 11 10 9 9 8 8
6 8 12 12 7 6 9 11 12 12 10 10 10 8 3 3 5 6 9 11 13 15 16 16 16 17 17 17 16 16 17 16 16 15 15 14 13 13 12 11 10 10 9 9
5 9 11 11 8 7 10 10 12 14 14 13 10 9 5 3 3 5 7 10 12 14 16 16 16 16 16 16 16 16 16 16 15 15 15 14 13 13 12 12 11 11 10 10
5 7 9 11 10 10 12 12 12 14 13 14 13 10 3 2 2 4 6 8 11 13 15 16 16 15 15 16 15 15 15 15 15 15 15 14 13 13 13 12 12 11 11 10
7 6 8 10 8 9 13 12 12 12 11 11 11 6 2 2 2 3 4 6 8 10 12 14 15 15 14 14 14 15 14 14 14 15 14 13 13 13 13 13 12 12 11 11
6 8 7 9 8 12 5 1 5 8 8 8 7 5 3 2 1 2 2 3 4 6 7 9 11 12 13 12 12 12 13 13 13 13 13 12 13 13 12 12 11 11 10 10
6 7 7 8 11 10 5 2 3 6 6 3 4 3 2 1 3 4 2 1 2 3 4 5 7 9 9 10 11 11 11 12 12 12 12 12 12 12 11 12 11 10 10 10
6 7 8 8 9 8 1 3 0 4 5 2 1 0 0 3 4 2 3 2 1 0 1 2 4 5 6 7 9 10 10 10 10 10 10 9 9 10 10 10 9 9 9 9
8 7 10 10 9 5 4 2 3 5 1 4 3 2 1 1 4 4 4 4 3 3 3 4 5 5 5 5 7 8 7 7 7 7 7 7 8 8 8 7 7 7 7 8
6 6 7 7 8 3 5 1 1 3 4 2 3 3 4 5 6 6 7 7 7 6 6 6 7 7 6 6 6 6 5 4 4 5 5 6 6 6 5 6 6 6 6 7
3 2 2 2 0 4 3 3 3 2 3 3 3 4 5 6 7 7 8 8 9 8 8 8 8 8 8 7 7 6 5 4 5 5 4 4 4 4 4 5 5 6 6 7
2 1 1 1 2 3 2 2 2 3 4 5 5 5 6 7 8 9 9 9 9 10 9 9 9 9 9 8 7 6 5 5 5 4 4 3 3 3 2 2 3 4 4 5
3 1 2 2 1 3 4 4 4 5 6 7 7 7 8 9 9 10 9 9 9 9 9 9 10 10 9 8 7 6 4 4 5 4 3 2 2 2 1 1 2 3 3 3
4 4 4 3 3 2 3 4 5 7 9 10 10 10 10 10 10 10 10 9 9 9 9 9 9 9 8 8 7 5 4 4 4 3 2 2 1 1 1 1 2 3 5 4
Wind_Direction
205 235 237 251 273 294 295 295 299 312 289 250 261 258 213 195 199 198 196 195 194 193 174 170 169 165 162 161 161 160 157 156 160 159 165 161 162 158 154 152 146 152 148 143
222 233 247 273 273 272 276 284 293 290 205 261 272 263 222 199 202 200 194 192 192 179 167 164 166 165 165 168 169 163 165 162 165 160 162 160 147 158 151 148 144 159 158 166
233 237 242 263 270 276 280 290 306 305 262 236 269 241 195 192 194 192 193 193 190 183 177 171 172 172 171 173 176 170 166 164 164 160 160 150 150 166 162 162 162 163 169 178
241 250 253 263 273 285 291 320 290 272 266 282 265 297 187 189 195 196 196 190 188 183 179 173 172 174 173 175 175 169 167 163 164 175 176 176 181 180 168 173 161 163 175 185
226 227 244 263 281 283 309 304 265 265 273 283 247 287 201 181 208 203 196 190 184 181 180 178 175 174 173 173 171 166 165 163 168 175 171 183 188 176 168 170 155 178 172 186
246 246 259 269 274 257 173 203 225 239 256 273 318 291 305 193 218 198 189 188 183 178 179 179 175 172 173 172 170 166 166 166 168 174 174 186 178 174 172 181 175 192 186 190
234 236 229 228 222 195 217 254 268 259 256 311 32 281 328 85 193 192 184 181 181 179 177 176 175 172 173 174 174 173 172 171 172 175 179 181 179 178 184 195 190 208 197 191
229 231 215 213 233 242 229 261 280 299 308 318 227 285 16 119 159 178 176 175 178 179 178 177 177 175 176 177 177 177 177 177 178 179 179 179 182 192 188 194 202 200 211 194
232 233 187 200 221 245 237 248 280 279 281 285 289 285 173 165 172 175 174 174 178 180 180 179 179 180 181 182 182 182 179 180 182 182 180 183 189 197 184 180 205 202 198 191
242 246 218 193 198 219 262 263 242 264 283 285 287 278 324 181 184 180 180 180 180 181 182 182 183 185 186 186 184 185 183 185 186 185 188 186 188 189 189 199 198 197 196 198
234 240 224 205 224 229 205 223 243 260 274 286 295 315 58 183 189 187 186 185 183 184 183 183 184 186 186 186 185 187 187 188 190 191 192 189 190 190 193 198 196 194 197 195
216 233 238 227 226 267 239 240 233 248 257 260 281 293 104 149 183 186 186 185 185 186 185 185 185 186 187 189 189 189 191 193 194 192 191 192 193 193 197 198 197 195 197 202
187 213 227 221 212 211 228 230 235 248 264 259 266 273 126 141 173 182 186 184 185 187 188 187 188 188 191 193 194 194 195 196 195 193 194 194 195 196 201 201 198 199 201 207
199 223 239 247 255 207 214 220 226 235 248 256 257 276 217 182 184 189 189 188 188 189 191 192 192 194 195 196 196 198 200 198 197 195 196 197 199 200 201 201 201 203 206 211
211 234 244 258 262 250 243 235 226 235 253 266 272 273 272 247 200 191 192 191 194 194 195 197 199 198 199 199 199 201 202 200 198 196 199 200 200 201 201 201 203 206 210 216
211 238 243 246 242 242 247 246 241 242 252 258 266 269 284 260 201 187 193 197 201 202 203 203 204 202 200 201 201 200 200 197 195 199 203 202 200 201 203 204 206 208 213 220
201 217 232 242 230 239 243 241 243 243 243 253 258 262 261 249 224 206 201 208 212 213 212 210 207 206 204 201 199 198 197 193 194 200 204 201 200 203 206 208 209 211 214 219
208 219 231 244 231 243 258 14 254 250 248 250 261 273 278 284 239 174 185 212 218 218 218 216 212 206 203 199 196 195 190 188 192 197 201 201 204 206 207 210 214 216 219 223
216 213 231 240 240 247 233 213 239 245 246 258 254 257 273 192 176 145 84 176 222 227 224 219 211 200 192 191 189 186 189 188 190 196 200 201 204 207 207 210 214 216 220 226
201 219 231 230 243 246 210 104 167 254 228 85 85 186 233 209 223 110 61 53 40 44 163 178 172 172 169 175 172 176 182 185 191 194 197 199 201 206 210 213 216 218 221 230
191 204 225 233 239 240 81 113 202 239 93 77 63 72 93 70 40 61 62 65 69 74 91 105 114 118 128 144 153 166 172 180 187 185 185 189 194 203 211 215 219 225 229 239
213 208 213 227 234 219 92 149 268 40 73 88 83 84 95 94 92 86 80 76 77 81 86 98 103 99 98 110 126 135 143 150 158 161 165 175 182 196 199 203 213 222 231 238
239 303 276 244 34 74 80 44 46 93 111 109 105 103 110 109 102 95 88 81 78 79 83 89 96 96 91 91 100 105 100 107 124 137 144 154 162 175 188 200 210 219 226 246
159 19 278 259 89 74 69 70 83 101 105 105 108 109 111 109 103 97 92 87 83 81 81 83 85 84 78 77 77 78 83 99 113 118 120 134 144 146 148 221 235 246 254 263
360 286 275 259 75 89 88 81 92 102 107 107 104 103 106 106 100 99 96 91 86 82 79 80 82 81 80 76 75 75 82 103 111 115 121 126 122 111 146 220 277 272 291 300
7 340 318 347 29 12 81 87 103 111 112 110 107 101 99 100 101 98 95 91 88 86 85 85 83 82 82 81 75 73 82 94 104 107 103 102 104 102 276 282 275 239 255 253
Height
1507 1505 1498 1493 1493 1493 1493 1494 1493 1491 1492 1496 1495 1496 1498 1503 1506 1508 1509 1510 1512 1514 1516 1518 1520 1523 1526 1529 1532 1535 1539 1542 1546 1549 1551 1553 1555 1557 1559 1560 1562 1563 1565 1566
1503 1499 1492 1493 1493 1494 1493 1493 1490 1490 1494 1495 1494 1494 1494 1500 1502 1505 1507 1508 1510 1512 1515 1517 1520 1522 1525 1528 1531 1534 1538 1542 1545 1548 1550 1552 1554 1556 1558 1560 1561 1563 1564 1565
1496 1490 1491 1493 1491 1492 1490 1490 1489 1491 1492 1493 1494 1491 1493 1496 1500 1503 1505 1507 1508 1511 1513 1516 1518 1521 1524 1527 1531 1535 1537 1541 1544 1546 1549 1551 1553 1555 1557 1559 1560 1562 1563 1564
1491 1488 1490 1490 1488 1488 1489 1486 1489 1491 1493 1489 1493 1494 1488 1490 1495 1498 1501 1504 1506 1509 1512 1514 1517 1520 1524 1527 1531 1533 1536 1539 1542 1545 1548 1550 1553 1555 1557 1558 1560 1560 1562 1563
1488 1487 1488 1489 1486 1487 1487 1488 1488 1489 1489 1490 1488 1491 1482 1486 1490 1492 1496 1500 1504 1507 1510 1513 1516 1518 1523 1526 1530 1532 1535 1538 1541 1544 1546 1548 1552 1554 1556 1557 1558 1559 1560 1561
1482 1483 1485 1483 1485 1486 1488 1490 1489 1488 1485 1495 1487 1492 1485 1480 1483 1485 1491 1496 1501 1505 1508 1512 1515 1518 1522 1525 1528 1531 1534 1537 1539 1542 1545 1547 1550 1552 1554 1555 1557 1558 1559 1560
1484 1480 1480 1483 1485 1487 1487 1490 1495 1496 1495 1491 1484 1488 1482 1475 1478 1482 1487 1493 1498 1502 1506 1510 1513 1516 1520 1524 1527 1530 1533 1535 1538 1541 1543 1546 1548 1550 1552 1554 1555 1557 1558 1559
1484 1484 1475 1478 1480 1480 1483 1485 1497 1506 1499 1487 1482 1485 1475 1475 1479 1482 1486 1491 1496 1500 1504 1508 1511 1514 1518 1522 1525 1528 1531 1534 1537 1540 1542 1544 1546 1549 1551 1552 1554 1555 1557 1558
1477 1479 1473 1475 1477 1477 1481 1481 1475 1485 1486 1491 1481 1476 1472 1475 1479 1482 1485 1489 1493 1497 1501 1505 1509 1513 1517 1520 1523 1526 1529 1532 1535 1538 1540 1542 1545 1547 1549 1549 1551 1553 1553 1555
1467 1477 1472 1475 1478 1479 1477 1474 1481 1485 1498 1498 1485 1479 1474 1474 1475 1479 1482 1486 1490 1495 1499 1503 1507 1511 1515 1518 1521 1525 1527 1530 1533 1536 1539 1541 1543 1545 1546 1548 1549 1550 1551 1552
1466 1474 1474 1475 1477 1474 1481 1481 1479 1477 1481 1493 1495 1482 1465 1468 1471 1474 1479 1483 1487 1492 1496 1500 1505 1508 1512 1516 1519 1522 1525 1528 1531 1534 1536 1539 1541 1543 1544 1545 1547 1547 1548 1549
1465 1468 1472 1470 1467 1469 1470 1471 1475 1485 1485 1483 1485 1478 1463 1465 1468 1472 1476 1480 1485 1489 1494 1498 1502 1506 1510 1513 1517 1519 1522 1525 1528 1531 1534 1536 1538 1540 1541 1543 1544 1545 1546 1547
1465 1471 1480 1479 1477 1474 1471 1468 1468 1470 1474 1479 1483 1476 1464 1466 1468 1471 1474 1479 1483 1487 1491 1495 1499 1503 1506 1510 1513 1516 1519 1522 1526 1528 1531 1533 1535 1536 1538 1540 1541 1542 1543 1544
1465 1466 1470 1476 1468 1461 1468 1467 1467 1470 1475 1474 1472 1467 1462 1464 1467 1470 1473 1477 1481 1485 1489 1492 1496 1499 1503 1506 1509 1513 1516 1519 1522 1525 1527 1529 1531 1533 1535 1536 1538 1539 1540 1541
1465 1465 1462 1459 1457 1459 1460 1461 1464 1467 1465 1468 1464 1462 1460 1462 1466 1470 1473 1475 1478 1482 1485 1488 1492 1495 1499 1502 1505 1508 1512 1515 1518 1520 1523 1525 1527 1529 1531 1532 1534 1535 1537 1538
1464 1464 1463 1463 1458 1459 1460 1458 1459 1461 1461 1461 1461 1460 1459 1463 1466 1469 1472 1473 1476 1478 1481 1485 1488 1491 1494 1497 1500 1503 1506 1509 1512 1515 1518 1520 1522 1524 1526 1528 1530 1531 1533 1534
1460 1464 1467 1464 1458 1461 1463 1455 1455 1456 1455 1458 1460 1458 1460 1463 1466 1468 1471 1472 1474 1475 1478 1481 1483 1486 1489 1492 1495 1498 1501 1504 1507 1509 1513 1515 1518 1520 1522 1524 1526 1527 1528 1529
1461 1463 1462 1461 1465 1475 1454 1448 1450 1452 1453 1454 1456 1458 1460 1464 1467 1469 1470 1471 1472 1473 1475 1477 1480 1482 1485 1488 1491 1493 1496 1499 1502 1504 1507 1510 1513 1515 1517 1519 1521 1522 1523 1524
1460 1461 1461 1462 1464 1459 1452 1450 1452 1454 1455 1455 1456 1459 1461 1463 1465 1467 1469 1470 1471 1471 1472 1474 1476 1478 1481 1484 1486 1489 1492 1494 1497 1500 1503 1505 1508 1511 1512 1514 1516 1517 1518 1519
1461 1459 1459 1461 1467 1467 1454 1452 1454 1456 1458 1458 1459 1460 1462 1462 1460 1465 1469 1469 1470 1470 1471 1472 1474 1475 1477 1480 1483 1485 1488 1490 1493 1496 1498 1501 1503 1505 1507 1509 1511 1512 1513 1514
1459 1460 1459 1459 1462 1454 1452 1454 1455 1462 1461 1462 1462 1463 1463 1464 1465 1470 1469 1470 1470 1470 1471 1471 1472 1474 1475 1477 1479 1482 1485 1487 1490 1492 1495 1496 1498 1500 1502 1504 1505 1507 1508 1509
1453 1455 1458 1457 1461 1461 1455 1455 1456 1460 1462 1463 1464 1465 1466 1467 1469 1470 1471 1471 1471 1471 1472 1472 1472 1473 1474 1476 1478 1480 1482 1485 1488 1490 1491 1493 1494 1496 1498 1499 1500 1501 1502 1503
1451 1451 1449 1452 1457 1458 1458 1459 1462 1462 1463 1464 1465 1467 1468 1469 1470 1471 1472 1472 1472 1472 1472 1473 1473 1473 1474 1475 1477 1479 1481 1483 1485 1487 1488 1490 1491 1492 1493 1494 1495 1496 1497 1497
1451 1455 1453 1454 1454 1458 1460 1462 1463 1463 1464 1466 1467 1468 1469 1470 1471 1472 1473 1474 1474 1473 1473 1474 1474 1474 1474 1475 1477 1478 1481 1483 1483 1484 1485 1487 1488 1489 1490 1491 1492 1492 1492 1492
1454 1454 1453 1454 1457 1459 1461 1463 1464 1465 1466 1467 1469 1470 1471 1473 1474 1474 1475 1475 1476 1475 1475 1475 1475 1475 1476 1477 1478 1479 1480 1482 1482 1483 1484 1485 1486 1486 1487 1487 1488 1488 1487 1487
1459 1459 1457 1457 1461 1461 1463 1465 1465 1466 1468 1469 1471 1472 1474 1475 1476 1477 1477 1478 1478 1478 1478 1477 1477 1477 1478 1478 1479 1481 1481 1482 1482 1483 1483 1484 1484 1484 1485 1485 1484 1483 1482 1481